FW7092 Weather Reports


Display with metric or nautical units.
time (UTC)temp
F
wind
direction
speed
MPH
gust
MPH
rain 1hr
in
rain 24hr
in
rain mn
in
humidity
%
barometer
mb
20260510211420 60 226 1.0 5.0 0.00 0.00 0.00 38 1020.5
20260510210919 60 254 0.0 2.0 0.00 0.00 0.00 38 1020.5
20260510210415 60 268 0.0 2.0 0.00 0.00 0.00 39 1020.6
20260510205914 61 234 2.0 3.0 0.00 0.00 0.00 38 1020.5
20260510205409 61 241 1.0 5.0 0.00 0.00 0.00 39 1020.6
20260510204905 61 273 3.0 11.0 0.00 0.00 0.00 40 1020.5
20260510204402 63 259 2.0 3.0 0.00 0.00 0.00 37 1020.4
20260510203858 61 178 0.0 2.0 0.00 0.00 0.00 34 1020.2
20260510203357 61 259 2.0 3.0 0.00 0.00 0.00 37 1020.4
20260510202856 61 332 2.0 3.0 0.00 0.00 0.00 38 1020.5
20260510202352 60 256 2.0 3.0 0.00 0.00 0.00 42 1020.5
20260510201849 62 217 2.0 5.0 0.00 0.00 0.00 40 1020.4
20260510201347 61 36 2.0 3.0 0.00 0.00 0.00 38 1020.6
20260510200843 61 284 3.0 10.0 0.00 0.00 0.00 38 1020.9
20260510200342 61 29 2.0 11.0 0.00 0.00 0.00 37 1020.6
20260510195837 60 23 3.0 8.0 0.00 0.00 0.00 40 1021.0
20260510195334 60 262 2.0 2.0 0.00 0.00 0.00 39 1020.8
20260510194829 60 243 1.0 5.0 0.00 0.00 0.00 41 1020.8
20260510194325 61 241 3.0 5.0 0.00 0.00 0.00 44 1021.1
20260510193821 61 176 1.0 3.0 0.00 0.00 0.00 37 1021.0
20260510193316 62 317 2.0 6.0 0.00 0.00 0.00 37 1020.9
20260510192812 61 74 4.0 5.0 0.00 0.00 0.00 36 1021.1
20260510192307 62 333 6.0 8.0 0.00 0.00 0.00 34 1020.9
20260510191804 62 342 3.0 9.0 0.00 0.00 0.00 37 1021.0
20260510191259 60 292 2.0 5.0 0.00 0.00 0.00 41 1020.8
20260510190758 60 239 2.0 5.0 0.00 0.00 0.00 42 1021.2
20260510190254 60 315 3.0 5.0 0.00 0.00 0.00 38 1021.2
20260510185750 61 282 6.0 8.0 0.00 0.00 0.00 38 1020.8
20260510185249 62 26 2.0 3.0 0.00 0.00 0.00 41 1020.9
20260510184745 62 198 0.0 6.0 0.00 0.00 0.00 37 1020.9
20260510184243 61 38 2.0 5.0 0.00 0.00 0.00 40 1020.8
20260510183737 60 288 3.0 6.0 0.00 0.00 0.00 38 1021.0
20260510183232 60 292 5.0 9.0 0.00 0.00 0.00 39 1021.1
20260510182729 60 255 8.0 14.0 0.00 0.00 0.00 40 1020.6
20260510182225 61 239 7.0 15.0 0.00 0.00 0.00 37 1020.6
20260510181722 61 276 5.0 8.0 0.00 0.00 0.00 43 1020.8
20260510181219 59 232 2.0 5.0 0.00 0.00 0.00 41 1020.9
20260510180714 60 248 5.0 6.0 0.00 0.00 0.00 39 1020.8
20260510180212 60 219 6.0 8.0 0.00 0.00 0.00 46 1020.6
20260510175708 60 276 3.0 5.0 0.00 0.00 0.00 45 1020.9
20260510175204 60 260 6.0 7.0 0.00 0.00 0.00 45 1020.6
20260510174701 59 237 1.0 5.0 0.00 0.00 0.00 39 1020.5
20260510174159 60 236 8.0 10.0 0.00 0.00 0.00 40 1020.8
20260510173655 59 281 6.0 10.0 0.00 0.00 0.00 43 1020.6
20260510173151 60 246 7.0 10.0 0.00 0.00 0.00 41 1020.5
20260510172646 60 0 5.0 7.0 0.00 0.00 0.00 44 1020.6
20260510172143 60 238 3.0 7.0 0.00 0.00 0.00 45 1020.8
20260510171640 60 328 4.0 9.0 0.00 0.00 0.00 40 1020.5
20260510171137 60 255 2.0 5.0 0.00 0.00 0.00 38 1020.6
20260510170633 60 344 2.0 3.0 0.00 0.00 0.00 39 1020.6
20260510170130 59 273 5.0 6.0 0.00 0.00 0.00 42 1020.8
20260510165626 59 339 2.0 3.0 0.00 0.00 0.00 43 1020.8
20260510165121 59 6 3.0 8.0 0.00 0.00 0.00 39 1020.8
20260510164619 60 158 7.0 9.0 0.00 0.00 0.00 36 1020.5
20260510164116 59 325 3.0 8.0 0.00 0.00 0.00 40 1020.9
20260510163611 59 239 5.0 7.0 0.00 0.00 0.00 37 1020.8
20260510163108 60 312 3.0 6.0 0.00 0.00 0.00 39 1020.5
20260510162602 60 0 3.0 5.0 0.00 0.00 0.00 44 1020.9
20260510162059 60 310 3.0 8.0 0.00 0.00 0.00 40 1021.0
20260510161555 60 10 2.0 3.0 0.00 0.00 0.00 42 1021.0
20260510161052 59 231 2.0 5.0 0.00 0.00 0.00 44 1020.8
20260510160549 59 266 2.0 6.0 0.00 0.00 0.00 46 1021.0
20260510160048 59 34 2.0 6.0 0.00 0.00 0.00 43 1020.8
20260510155545 59 99 3.0 3.0 0.00 0.00 0.00 39 1020.8
20260510155042 60 219 2.0 7.0 0.00 0.00 0.00 40 1020.8
20260510154537 60 321 1.0 2.0 0.00 0.00 0.00 42 1020.6
20260510154032 59 30 3.0 5.0 0.00 0.00 0.00 38 1020.6
20260510153527 59 84 4.0 6.0 0.00 0.00 0.00 40 1020.4
20260510153025 59 338 2.0 5.0 0.00 0.00 0.00 43 1020.6
20260510152522 59 100 1.0 3.0 0.00 0.00 0.00 42 1020.4
20260510152018 59 239 0.0 2.0 0.00 0.00 0.00 41 1020.5
20260510151515 59 78 5.0 6.0 0.00 0.00 0.00 42 1020.8
20260510151013 59 232 2.0 3.0 0.00 0.00 0.00 41 1020.4
20260510150507 59 31 1.0 5.0 0.00 0.00 0.00 40 1020.4
20260510150004 59 221 0.0 2.0 0.00 0.00 0.00 44 1020.5
20260510145501 59 356 2.0 3.0 0.00 0.00 0.00 45 1020.2
20260510144957 57 52 0.0 1.0 0.00 0.00 0.00 47 1020.5
20260510144454 58 107 1.0 3.0 0.00 0.00 0.00 46 1020.2
20260510143949 59 64 3.0 5.0 0.00 0.00 0.00 44 1020.2
20260510143445 58 174 0.0 6.0 0.00 0.00 0.00 46 1020.0
20260510142942 58 100 2.0 5.0 0.00 0.00 0.00 47 1020.0
20260510142439 57 51 2.0 3.0 0.00 0.00 0.00 50 1019.9
20260510141935 57 85 3.0 7.0 0.00 0.00 0.00 46 1020.2
20260510141432 57 0 2.0 5.0 0.00 0.00 0.00 54 1019.9
20260510140929 57 164 0.0 3.0 0.00 0.00 0.00 52 1020.0
20260510140420 57 355 2.0 5.0 0.00 0.00 0.00 56 1019.9
20260510135919 57 81 3.0 7.0 0.00 0.00 0.00 56 1019.8
20260510135415 57 135 1.0 3.0 0.00 0.00 0.00 59 1020.0
20260510134913 57 71 2.0 3.0 0.00 0.00 0.00 59 1019.8
20260510134409 56 91 0.0 3.0 0.00 0.00 0.00 58 1019.8
20260510133905 56 149 3.0 5.0 0.00 0.00 0.00 58 1019.7
20260510133402 56 106 3.0 8.0 0.00 0.00 0.00 57 1019.7
20260510132857 56 28 0.0 3.0 0.00 0.00 0.00 60 1019.8
20260510132355 56 85 2.0 6.0 0.00 0.00 0.00 59 1019.9
20260510131852 55 3 3.0 5.0 0.00 0.00 0.00 61 1019.6
20260510131350 55 97 2.0 2.0 0.00 0.00 0.00 64 1019.8
20260510130846 54 4 4.0 6.0 0.00 0.00 0.00 61 1019.8
20260510130343 55 97 4.0 5.0 0.00 0.00 0.00 59 1019.7
20260510125840 54 109 1.0 2.0 0.00 0.00 0.00 65 1019.6
20260510125336 55 46 2.0 5.0 0.00 0.00 0.00 65 1019.6
20260510124833 54 114 3.0 5.0 0.00 0.00 0.00 65 1019.3
20260510124330 54 172 1.0 6.0 0.00 0.00 0.00 66 1019.5
20260510123825 53 68 3.0 3.0 0.00 0.00 0.00 67 1019.2
20260510123321 53 61 2.0 2.0 0.00 0.00 0.00 67 1019.1
20260510122817 52 11 3.0 3.0 0.00 0.00 0.00 71 1019.3
20260510122314 52 73 3.0 6.0 0.00 0.00 0.00 70 1019.1
20260510121810 52 8 1.0 3.0 0.00 0.00 0.00 72 1019.1
20260510121308 52 79 2.0 3.0 0.00 0.00 0.00 72 1019.2
20260510120805 51 73 0.0 5.0 0.00 0.00 0.00 73 1019.0
20260510120301 52 106 1.0 5.0 0.00 0.00 0.00 72 1019.0
20260510115757 51 69 2.0 3.0 0.00 0.00 0.00 73 1019.0
20260510115256 51 55 3.0 5.0 0.00 0.00 0.00 73 1019.0
20260510114755 51 97 4.0 6.0 0.00 0.00 0.00 73 1018.8
20260510114253 51 122 3.0 5.0 0.00 0.00 0.00 74 1018.5
20260510113748 50 76 3.0 6.0 0.00 0.00 0.00 74 1018.4
20260510113246 50 131 1.0 3.0 0.00 0.00 0.00 75 1018.5
20260510112742 50 77 4.0 5.0 0.00 0.00 0.00 75 1018.1
20260510112238 50 86 4.0 5.0 0.00 0.00 0.00 76 1018.3
20260510111734 49 17 2.0 5.0 0.00 0.00 0.00 79 1018.0
20260510111232 49 155 1.0 5.0 0.00 0.00 0.00 80 1018.2
20260510110731 49 97 1.0 3.0 0.00 0.00 0.00 81 1017.9
20260510110229 48 48 3.0 5.0 0.00 0.00 0.00 81 1018.0
20260510105728 48 270 1.0 2.0 0.00 0.00 0.00 81 1017.5
20260510105224 48 331 1.0 2.0 0.00 0.00 0.00 80 1017.5
20260510104720 48 176 1.0 2.0 0.00 0.00 0.00 79 1017.4
20260510104218 48 204 0.0 1.0 0.00 0.00 0.00 76 1017.4
20260510103714 48 26 2.0 2.0 0.00 0.00 0.00 75 1017.3
20260510103212 48 277 0.0 2.0 0.00 0.00 0.00 75 1017.2
20260510102711 48 210 0.0 1.0 0.00 0.00 0.00 76 1017.1
20260510102207 49 265 1.0 5.0 0.00 0.00 0.00 76 1016.9
20260510101705 48 326 1.0 3.0 0.00 0.00 0.00 76 1016.9
20260510101203 48 16 0.0 1.0 0.00 0.00 0.00 79 1016.7
20260510100658 48 281 1.0 2.0 0.00 0.00 0.00 80 1016.7
20260510100156 47 239 1.0 2.0 0.00 0.00 0.00 83 1016.5
20260510095651 47 295 0.0 1.0 0.00 0.00 0.00 86 1016.6
20260510095147 46 248 1.0 2.0 0.00 0.00 0.00 87 1016.2
20260510094646 46 226 0.0 0.0 0.00 0.00 0.00 86 1016.2
20260510094142 46 226 0.0 0.0 0.00 0.00 0.00 85 1016.2
20260510093638 46 240 0.0 0.0 0.00 0.00 0.00 85 1015.9
20260510093136 47 240 0.0 0.0 0.00 0.00 0.00 85 1015.9
20260510092632 47 235 0.0 0.0 0.00 0.00 0.00 84 1015.8
20260510092127 48 232 0.0 0.0 0.00 0.00 0.00 85 1015.5
20260510091623 47 205 0.0 0.0 0.00 0.00 0.00 84 1015.6
20260510091120 48 205 0.0 0.0 0.00 0.00 0.00 83 1015.6
20260510090617 48 204 0.0 0.0 0.00 0.00 0.00 82 1015.5
20260510090113 49 204 0.0 0.0 0.00 0.00 0.00 80 1015.5
20260510085608 50 205 0.0 0.0 0.00 0.00 0.00 78 1015.1
20260510085104 51 205 0.0 0.0 0.00 0.00 0.00 76 1015.2
20260510084601 51 177 0.0 1.0 0.00 0.00 0.00 75 1015.2
20260510084057 51 117 1.0 2.0 0.00 0.00 0.00 74 1015.4
20260510083554 51 147 1.0 2.0 0.00 0.00 0.00 75 1015.1
20260510083050 51 175 0.0 1.0 0.00 0.00 0.00 75 1015.0
20260510082547 51 170 1.0 1.0 0.00 0.00 0.00 73 1015.2
20260510082042 51 165 0.0 1.0 0.00 0.00 0.00 73 1015.1
20260510081537 51 179 0.0 1.0 0.00 0.00 0.00 73 1014.9
20260510081033 51 155 0.0 1.0 0.00 0.00 0.00 73 1014.9
20260510080532 52 174 0.0 1.0 0.00 0.00 0.00 72 1014.7
20260510080030 52 76 1.0 1.0 0.00 0.00 0.00 71 1014.6
20260510075526 52 116 0.0 1.0 0.00 0.00 0.00 71 1014.7
20260510075023 51 180 0.0 1.0 0.00 0.00 0.00 71 1014.6
20260510074521 51 179 0.0 0.0 0.00 0.00 0.00 72 1014.6
20260510074016 51 197 0.0 0.0 0.00 0.00 0.00 72 1014.5
20260510073512 51 212 0.0 0.0 0.00 0.00 0.00 71 1014.2
20260510073010 51 189 0.0 1.0 0.00 0.00 0.00 71 1014.1
20260510072506 49 78 2.0 6.0 0.00 0.00 0.00 76 1014.2
20260510072001 48 220 0.0 0.0 0.00 0.00 0.00 77 1013.9
20260510071458 48 220 0.0 0.0 0.00 0.00 0.00 77 1014.0
20260510070956 47 220 0.0 0.0 0.00 0.00 0.00 78 1013.9
20260510070454 47 220 0.0 0.0 0.00 0.00 0.00 79 1014.0
20260510065949 47 219 0.0 0.0 0.00 0.00 0.00 80 1013.9
20260510065446 46 224 1.0 1.0 0.00 0.00 0.00 79 1013.8
20260510064942 47 224 0.0 0.0 0.00 0.00 0.00 79 1013.6
20260510064440 49 221 0.0 0.0 0.00 0.00 0.00 77 1013.6
20260510063936 49 220 0.0 0.0 0.00 0.00 0.00 72 1013.4
20260510063432 49 218 0.0 0.0 0.00 0.00 0.00 73 1013.5
20260510062931 50 209 0.0 0.0 0.00 0.00 0.00 72 1013.4
20260510062430 50 209 0.0 0.0 0.00 0.00 0.00 71 1013.3
20260510061926 51 209 0.0 0.0 0.00 0.00 0.00 69 1013.3
20260510061423 52 202 0.0 0.0 0.00 0.00 0.00 68 1013.3
20260510060919 52 202 0.0 0.0 0.00 0.00 0.00 66 1013.3
20260510060416 53 201 0.0 0.0 0.00 0.00 0.00 65 1013.2
20260510055912 53 235 0.0 0.0 0.00 0.00 0.00 63 1013.1
20260510055408 53 233 0.0 0.0 0.00 0.00 0.00 63 1013.0
20260510054900 53 248 0.0 0.0 0.00 0.00 0.00 64 1013.0
20260510054356 53 217 0.0 0.0 0.00 0.00 0.00 64 1012.8
20260510053851 54 234 0.0 0.0 0.00 0.00 0.00 63 1012.9
20260510053347 54 253 0.0 1.0 0.00 0.00 0.00 62 1012.8
20260510052843 54 234 0.0 0.0 0.00 0.00 0.00 62 1012.9
20260510052339 54 233 0.0 0.0 0.00 0.00 0.00 61 1012.8
20260510051836 54 227 0.0 0.0 0.00 0.00 0.00 63 1012.7
20260510051333 54 228 0.0 0.0 0.00 0.00 0.00 61 1012.5
20260510050830 55 234 0.0 0.0 0.00 0.00 0.00 60 1012.5
20260510050326 55 227 0.0 0.0 0.00 0.00 0.00 59 1012.4
20260510045823 56 224 0.0 0.0 0.00 0.00 0.00 59 1012.4
20260510045320 56 234 0.0 0.0 0.00 0.00 0.00 59 1012.2
20260510044817 57 233 0.0 1.0 0.00 0.00 0.00 57 1012.1
20260510044314 57 231 0.0 1.0 0.00 0.00 0.00 57 1011.9
20260510043810 58 317 1.0 2.0 0.00 0.00 0.00 56 1011.7
20260510043306 58 196 0.0 2.0 0.00 0.00 0.00 55 1011.6
20260510042804 58 301 1.0 2.0 0.00 0.00 0.00 55 1011.5
20260510042259 59 29 2.0 2.0 0.00 0.00 0.00 55 1011.3
20260510041756 59 12 3.0 7.0 0.00 0.00 0.00 54 1011.2
20260510041254 59 23 2.0 6.0 0.00 0.00 0.00 54 1011.2
20260510040751 60 280 1.0 7.0 0.00 0.00 0.00 55 1011.2
20260510040248 60 317 2.0 8.0 0.00 0.00 0.00 56 1011.3
20260510035743 60 312 6.0 9.0 0.00 0.05 0.05 56 1011.1
20260510035239 59 226 3.0 7.0 0.00 0.05 0.05 63 1011.0
20260510034735 59 353 1.0 5.0 0.00 0.05 0.05 70 1010.8
20260510034233 59 289 3.0 7.0 0.00 0.05 0.05 76 1010.9
20260510033729 59 284 3.0 6.0 0.00 0.05 0.05 80 1010.7
20260510033227 59 219 3.0 6.0 0.00 0.05 0.05 82 1010.6
20260510032723 58 230 3.0 5.0 0.00 0.05 0.05 83 1010.5
20260510032219 58 273 4.0 5.0 0.00 0.05 0.05 84 1010.5
20260510031714 58 324 3.0 3.0 0.00 0.05 0.05 84 1010.4
20260510031210 58 237 3.0 5.0 0.00 0.05 0.05 86 1010.3
20260510030709 58 256 4.0 5.0 0.00 0.05 0.05 85 1010.0
20260510030208 58 241 3.0 3.0 0.00 0.05 0.05 86 1009.6
20260510025705 57 235 4.0 5.0 0.00 0.05 0.05 87 1009.5
20260510025202 57 216 4.0 5.0 0.00 0.05 0.05 87 1009.5
20260510024659 57 233 2.0 2.0 0.00 0.05 0.05 86 1009.4
20260510024155 57 222 2.0 3.0 0.00 0.05 0.05 86 1009.3
20260510023651 57 213 3.0 3.0 0.00 0.05 0.05 85 1009.1
20260510023148 57 209 3.0 5.0 0.00 0.05 0.05 85 1009.1
20260510022643 57 203 5.0 6.0 0.00 0.05 0.05 86 1009.3
20260510022138 56 218 5.0 6.0 0.00 0.05 0.05 87 1009.1
20260510021634 57 216 4.0 5.0 0.00 0.05 0.05 86 1008.9
20260510021131 57 215 5.0 6.0 0.00 0.05 0.05 86 1008.8
20260510020626 56 218 5.0 6.0 0.00 0.05 0.05 87 1008.8
20260510020121 56 206 3.0 5.0 0.00 0.05 0.05 87 1008.6
20260510015618 57 224 5.0 6.0 0.00 0.05 0.05 87 1008.7
20260510015114 57 217 5.0 6.0 0.00 0.05 0.05 86 1008.7
20260510014610 57 212 4.0 5.0 0.00 0.05 0.05 86 1008.5
20260510014108 58 226 5.0 6.0 0.00 0.05 0.05 86 1008.6
20260510013601 58 211 5.0 6.0 0.00 0.05 0.05 86 1008.6
20260510013058 58 212 5.0 7.0 0.00 0.05 0.05 86 1008.5
20260510012551 59 215 4.0 5.0 0.00 0.05 0.05 84 1008.4
20260510012048 59 214 5.0 7.0 0.00 0.05 0.05 82 1008.2
20260510011548 59 220 5.0 7.0 0.00 0.05 0.05 82 1008.3
20260510011044 60 218 5.0 8.0 0.00 0.05 0.05 81 1008.3
20260510010541 60 228 9.0 10.0 0.00 0.05 0.05 80 1008.4
20260510010038 60 224 7.0 9.0 0.00 0.05 0.05 81 1008.4
20260510005533 60 215 7.0 9.0 0.00 0.05 0.05 79 1008.0
20260510005031 60 212 5.0 7.0 0.00 0.05 0.05 79 1008.1
20260510004529 60 205 3.0 5.0 0.00 0.05 0.05 79 1008.1
20260510004027 61 229 3.0 5.0 0.00 0.05 0.05 79 1008.0
20260510003523 61 221 4.0 5.0 0.00 0.05 0.05 78 1007.9
20260510003018 61 229 3.0 3.0 0.00 0.05 0.05 77 1007.8
20260510002514 62 232 4.0 6.0 0.00 0.05 0.05 76 1007.9
20260510002011 62 232 6.0 7.0 0.00 0.05 0.05 75 1007.9
20260510001508 61 239 5.0 9.0 0.00 0.05 0.05 75 1007.8
20260510001006 61 227 4.0 5.0 0.00 0.05 0.05 77 1007.7
20260510000501 62 239 3.0 3.0 0.00 0.05 0.05 76 1007.7
20260509235958 62 212 4.0 5.0 0.00 0.05 0.05 76 1007.7
20260509235455 62 229 4.0 6.0 0.00 0.05 0.05 75 1007.8
20260509234951 63 210 5.0 7.0 0.00 0.05 0.05 74 1007.7
20260509234448 63 228 5.0 7.0 0.00 0.05 0.05 72 1007.7
20260509233946 63 243 7.0 8.0 0.00 0.05 0.05 72 1007.8
20260509233444 63 239 9.0 11.0 0.00 0.05 0.05 71 1007.7
20260509232939 63 218 8.0 10.0 0.00 0.05 0.05 73 1007.6
20260509232438 63 213 6.0 9.0 0.00 0.05 0.05 73 1007.7
20260509231933 64 199 8.0 13.0 0.00 0.05 0.05 71 1007.5
20260509231429 64 217 12.0 14.0 0.00 0.05 0.05 70 1007.7
20260509230928 64 231 9.0 11.0 0.00 0.05 0.05 70 1007.6
20260509230425 64 239 9.0 11.0 0.00 0.05 0.05 71 1007.7
20260509225920 64 225 10.0 11.0 0.00 0.05 0.05 70 1007.8
20260509225417 64 219 10.0 13.0 0.00 0.05 0.05 71 1007.7
20260509224913 64 235 7.0 11.0 0.00 0.05 0.05 72 1007.6
20260509224408 63 224 7.0 13.0 0.00 0.05 0.05 74 1007.6
20260509223906 63 223 9.0 13.0 0.00 0.05 0.05 73 1007.7
20260509223402 63 196 7.0 13.0 0.00 0.05 0.05 72 1007.7
20260509222900 63 205 11.0 11.0 0.00 0.05 0.05 73 1007.7
20260509222355 63 231 9.0 14.0 0.00 0.05 0.05 71 1007.7
20260509221850 63 249 8.0 14.0 0.00 0.05 0.05 74 1007.6
20260509221348 62 215 9.0 13.0 0.00 0.05 0.05 75 1007.7
20260509220843 62 233 11.0 16.0 0.00 0.05 0.05 74 1007.7
20260509220339 61 263 14.0 18.0 0.00 0.05 0.05 76 1007.6
20260509215834 62 242 11.0 15.0 0.00 0.05 0.05 78 1007.6
20260509215331 61 222 13.0 17.0 0.00 0.05 0.05 76 1007.8
20260509214828 61 240 11.0 16.0 0.00 0.05 0.05 78 1007.6
20260509214325 62 248 12.0 15.0 0.00 0.05 0.05 76 1007.4
20260509213823 62 225 9.0 14.0 0.00 0.05 0.05 80 1007.3
20260509213317 60 226 14.0 17.0 0.00 0.05 0.05 76 1007.4
20260509212816 60 229 11.0 16.0 0.07 0.05 0.05 82 1007.2
20260509212313 58 246 12.0 18.0 0.28 0.05 0.05 86 1007.6
20260509211809 60 252 18.0 22.0 0.00 0.00 0.00 77 1007.6